ENDUROSAT ONE (43551 NORAD) Tracking and Keplerian Element Data

This shows tracking and keplerian element data for the satellite.

Feedback or suggestion? Click here.




ElementValue
Catalog43551
NameENDUROSAT ONE
Epoch Orbit4430
Epoch Day113.58407125
Epoch Year2019
RAAN263.8456
Inclination51.638
Eccentricity0.000594
Argument of Perigee293.63
Mean Anonmoly66.407
Mean Motion15.61308178
Decay Rate0.00013084
L11 43551U 98067NZ 19113.58407125 .00013084 00000-0 15669-3 0 9991
L22 43551 51.6380 263.8456 0005940 293.6300 66.4070 15.61308178 44302

Live tracking and technical data element details for ENDUROSAT ONE (NORAD 43551). ENDUROSAT ONE can be tracked NOW for your location showing map with azimuth and elevation plus other details from your city location.

Track the satellite on the map from your city or location and see movement details for azimuth, elevation, latitude, longitude, range, height, and movement on the map or in text.







IsCatalogInMostPopularTable: catalog: 43551, numindb: 139
Update: records affected: 1



GetName: 43551 ENDUROSAT ONE

Hit Count: updated at: Thu, 25 Apr 2019 19:48:25 GMT